SCP
0 0 0 0 0 0 0 0 0 0 0 0 0 0 0 0 0 0 0 0 0 0 0 0 0 0 0 1 0 0 0 0 0 0 0 0 0 0 0 0 0 0 0 0 0 0 0 0 0 0 0 0 0 0
0 0 0 0 0 0 0 0 0 0 0 -0 0 0 0 0 0 0 0 0 0 0 0 0 0 0 0 0 0 0 0 0 0 0 0 0 0 0 0 0 0 0 0 0 0 0 0 -0 -0 0 0 0 0 0
0 0 0 0 0 0 0 0 0 0 -0 -0 0 0 0 0 0 0 0 0 0 0 0 0 0 0 0 0 0 0 0 0 0 0 0 0 0 0 0 0 0 0 0 0 0 -0 -0 -0 0 0 0 0 0 0
0 0 0 0 0 0 0 0 0 0 -0 0 0 0 0 0 0 0 0 0 0 0 0 0 0 0 0 0 0 0 0 0 0 0 0 0 0 0 0 0 0 0 0 0 -0 -0 -0 0 0 0 0 0 0 0
0 0 0 0 0 0 0 0 0 0 -0 0 0 0 0 0 0 0 0 0 0 0 0 0 0 0 0 0 0 0 0 0 0 0 0 0 0 0 0 0 0 0 0 0 0 -0 0 -0 -0 0 0 0 0 0
0 0 0 0 0 0 0 0 0 0 0 0 0 0 0 0 0 0 0 0 0 0 0 0 0 0 0 0 0 0 0 0 0 0 0 0 0 0 0 0 0 0 0 0 -0 -0 -0 -0 -0 0 0 0 0 0
0 0 0 0 0 0 0 0 0 0 0 0 0 0 0 0 0 0 0 0 0 0 0 0 0 0 0 0 0 0 0 0 0 0 0 0 0 0 0 0 0 0 -0 -0 -0 -0 -0 -0 -0 0 0 0 0 0
0 0 0 0 0 0 0 0 0 0 0 -0 0 0 0 0 0 0 0 0 0 0 0 1 0 0 0 0 0 0 0 0 0 0 0 0 0 0 0 0 -0 -0 -0 -0 -0 -0 -0 -0 -0 0 0 0 0 0
0 0 0 0 0 0 0 0 0 0 -0 -0 0 0 0 0 0 0 0 0 0 0 1 1 0 0 0 0 0 0 0 0 0 0 0 0 0 0 0 -0 -0 -0 -0 -0 -0 -0 -0 -0 -0 0 0 0 0 0
0 0 0 0 0 0 0 0 0 0 -0 0 0 0 0 0 0 0 0 0 0 0 0 1 0 0 0 0 0 0 0 0 0 0 0 0 0 0 0 0 -0 -0 -0 -0 -0 -0 -0 -0 0 0 0 0 0 0
0 0 0 0 0 0 0 0 0 0 0 0 0 0 0 0 0 1 0 0 0 0 0 0 0 0 0 0 0 0 0 0 0 0 0 0 0 0 0 -0 -0 -0 -0 -0 -0 -0 -0 0 0 0 0 0 0 0
0 0 0 0 0 0 0 0 0 0 0 0 0 0 0 0 1 0 0 0 0 0 0 0 0 0 0 0 0 0 0 0 0 0 0 0 0 0 -0 -0 -0 -0 -0 -0 -0 -0 0 0 0 0 0 0 0 0
0 0 0 0 0 0 0 0 0 -0 0 0 0 1 1 1 1 0 0 0 0 0 0 0 0 0 0 0 0 0 0 0 0 0 0 0 0 0 -0 -0 -0 -0 -0 -0 -0 -0 0 0 0 0 0 0 0 0
0 0 0 0 0 0 0 0 -0 -0 0 0 0 2 0 0 0 0 0 0 0 0 0 0 0 0 0 0 0 0 0 0 0 0 0 0 0 0 -0 -0 -0 -0 -0 -0 -0 -0 0 0 0 0 0 0 0 0
0 0 0 0 0 0 0 0 0 0 0 0 1 0 0 0 0 0 0 0 0 0 0 0 0 0 0 0 0 0 0 0 0 0 0 0 0 0 -0 -0 -0 -0 -0 -0 -0 0 0 0 0 0 0 0 0 0
0 0 0 0 0 0 -0 0 0 0 0 0 0 0 0 0 0 0 0 0 0 0 0 0 0 0 0 0 0 0 0 0 0 0 0 0 0 0 0 0 0 -0 -0 -0 0 0 0 0 0 0 0 0 0 0
0 0 0 0 0 0 0 0 0 0 0 0 0 0 0 0 0 0 0 0 0 0 0 0 0 0 0 0 0 0 0 0 0 0 0 0 0 0 0 0 0 0 0 0 0 0 0 0 0 0 0 0 0 0
0 0 0 0 0 0 0 0 0 0 0 0 0 0 0 0 0 0 0 0 0 0 0 0 0 0 0 0 0 0 0 0 0 0 0 0 0 0 0 0 0 0 0 0 0 0 0 0 0 0 0 0 0 0
0 0 0 0 0 0 0 0 0 0 0 1 0 0 0 0 0 0 0 0 0 0 0 0 0 0 0 0 0 0 0 0 0 0 0 0 0 0 0 0 0 0 0 0 0 0 0 0 0 0 0 0 0 0
0 0 0 0 0 -0 0 0 0 0 1 0 0 0 0 0 0 0 0 0 0 0 0 0 0 0 0 0 0 0 0 0 0 0 0 0 0 0 0 0 0 0 0 0 0 0 0 0 0 0 0 0 0 0
0 0 0 0 0 0 0 0 0 0 0 0 0 0 0 0 0 0 0 0 0 0 0 0 0 0 0 0 0 0 0 0 0 0 0 0 0 0 0 0 0 0 0 0 0 0 0 0 0 0 0 0 0 0
0 0 0 0 0 0 0 0 0 0 0 0 0 0 0 0 0 0 0 0 0 0 0 0 0 0 0 0 0 0 0 0 0 0 0 0 0 0 0 0 0 0 0 0 0 0 0 0 0 0 0 0 0 0
0 0 0 0 0 0 0 0 0 0 0 0 0 0 0 0 0 0 0 0 0 0 0 0 0 0 0 0 0 0 0 0 0 0 0 0 0 0 0 0 0 0 0 0 0 0 0 0 0 0 0 0 0 0
0 0 0 0 0 0 0 0 0 0 0 0 0 0 0 0 0 0 0 0 0 0 0 0 0 0 0 0 0 0 0 0 0 0 0 0 0 0 0 0 0 0 0 0 0 0 0 0 0 0 0 0 0 0
0 0 0 0 0 0 0 0 0 0 0 0 0 0 0 0 0 0 0 0 0 0 0 0 0 0 0 0 0 0 0 0 0 0 0 0 0 0 0 0 0 0 0 0 0 0 0 0 0 0 0 0 0 0
0 0 0 0 0 0 0 0 0 0 0 0 0 0 0 0 0 0 0 0 0 0 0 0 0 0 0 0 0 0 0 0 0 0 0 0 0 0 0 0 0 0 0 0 0 0 0 0 0 0 0 0 0 0
0 0 0 0 0 0 0 0 0 0 0 0 0 0 0 0 0 0 0 0 0 0 0 0 0 0 0 0 0 0 0 0 0 0 0 0 0 0 0 0 0 0 0 0 0 0 0 0 0 0 0 0 0 0
0 0 0 0 0 0 0 0 0 0 0 0 0 0 0 0 0 0 0 0 0 0 0 0 0 0 0 0 0 0 0 0 0 0 0 0 0 0 0 0 0 0 0 0 0 0 0 0 0 0 0 0 0 0
0 0 0 0 0 0 0 0 0 0 0 0 0 0 0 0 0 0 0 0 0 0 0 0 0 0 0 0 0 0 0 0 0 0 0 0 0 0 0 0 0 0 0 0 0 0 0 0 0 0 0 0 0 0
0 0 0 0 0 0 0 0 0 0 0 0 0 0 0 0 0 0 0 0 0 0 0 0 0 0 0 0 0 0 0 0 0 0 0 0 0 0 0 0 0 0 0 0 0 0 0 0 0 0 0 0 0 0
0 0 0 0 0 0 0 0 0 0 0 0 0 0 0 0 0 0 0 0 0 0 0 0 0 0 0 0 0 0 0 0 0 0 0 0 0 0 0 0 0 0 0 0 0 0 0 0 0 0 0 0 0 0
0 0 0 0 0 0 0 0 0 0 0 0 0 0 0 0 0 0 0 0 0 0 0 0 0 0 0 0 0 0 0 0 0 0 0 0 0 0 0 0 0 0 0 0 0 0 0 0 0 0 0 0 0 0
0 0 0 0 0 0 0 0 0 0 0 0 0 0 0 0 0 0 0 0 0 0 0 0 0 0 0 0 0 0 0 0 0 0 0 0 0 0 0 0 0 0 0 0 0 0 0 0 0 0 0 0 0 0
Wind_Speed_500mb
59 56 51 51 47 48 47 47 43 39 38 36 69 33 57 62 55 53 22 25 18 23 21 4 6 8 12 15 16 30 13 11 15 15 8 4 5 10 6 13 9 11 10 7 1 8 11 5 7 10 16 14 11 13
63 60 55 53 50 48 50 46 45 42 40 35 68 36 43 68 59 52 21 23 26 18 17 15 15 14 13 8 9 16 10 26 3 8 4 4 7 8 16 13 2 5 9 6 13 10 22 25 31 22 15 14 12 11
66 61 59 55 53 49 52 47 46 43 39 36 61 27 47 67 64 59 20 16 18 19 34 25 19 13 8 10 10 9 6 6 3 5 4 2 5 8 13 12 11 8 6 9 14 19 24 24 22 20 17 16 13 12
67 64 60 56 55 52 54 49 47 44 42 33 56 35 48 66 62 57 28 15 20 14 17 21 12 7 13 14 20 14 7 6 15 8 10 9 7 5 3 11 2 8 17 16 20 25 25 20 20 19 18 15 14 14
68 65 59 57 56 53 55 50 47 44 42 29 55 32 48 61 58 53 29 22 26 12 13 14 14 4 5 13 16 14 14 11 16 10 10 6 6 6 4 10 16 12 19 11 14 42 8 36 25 19 16 13 14 16
70 65 58 58 58 54 55 50 47 45 44 28 49 29 51 59 56 36 19 36 33 21 13 8 15 9 10 15 16 18 13 7 7 6 5 4 1 6 12 7 14 18 18 19 30 26 32 34 27 19 17 16 17 19
72 65 59 58 57 55 55 50 47 45 44 29 60 39 61 65 63 44 5 15 37 19 11 9 18 13 18 19 16 16 14 8 9 10 3 10 12 6 5 5 28 24 29 38 37 43 37 31 27 21 20 20 23 20
74 64 59 60 56 57 54 51 49 43 38 43 64 14 57 59 47 42 17 23 45 16 14 7 11 24 15 21 16 13 18 17 5 6 9 10 11 6 2 29 37 37 38 40 26 21 30 30 27 22 21 22 22 20
71 64 62 60 57 58 54 51 48 43 33 44 67 31 63 67 34 35 26 20 43 12 13 10 18 16 20 10 17 11 8 7 5 7 7 8 9 7 26 37 40 43 31 32 31 34 33 29 25 22 21 21 21 19
69 66 62 59 60 57 55 52 49 47 30 55 53 23 24 50 35 30 17 22 19 14 14 14 37 17 31 27 7 12 3 7 11 6 7 8 8 18 26 34 40 33 34 36 37 33 30 26 22 20 20 20 20 19
69 67 60 60 61 57 56 56 49 38 47 47 19 15 50 61 42 14 17 23 26 14 20 15 25 24 13 14 13 6 4 4 7 9 7 11 9 24 34 39 40 34 35 28 21 25 23 22 22 21 21 21 23 22
67 63 59 63 58 57 58 55 50 51 57 44 15 43 69 30 16 14 17 15 16 20 35 30 26 42 18 7 11 6 5 2 3 9 7 6 14 40 42 46 40 40 32 25 26 24 21 21 20 20 21 23 24 22
64 60 64 59 59 62 55 55 53 45 54 19 19 19 26 15 11 19 37 27 20 37 43 47 29 27 12 6 11 6 7 4 7 7 7 9 37 41 48 47 46 38 33 31 28 24 23 22 19 19 21 24 26 22
61 64 60 59 60 60 52 47 44 61 38 6 11 15 14 17 18 16 31 30 42 45 55 50 31 17 25 13 7 9 7 7 8 8 6 17 39 48 49 47 47 41 35 31 27 24 22 20 20 19 21 24 24 23
64 60 57 58 60 54 54 38 62 56 12 11 15 14 24 27 40 38 59 56 43 56 57 46 28 22 13 7 4 8 10 9 10 6 14 35 42 50 50 49 45 40 34 29 25 23 21 21 19 20 20 21 21 21
60 54 55 59 57 54 42 47 41 20 10 9 15 18 44 38 40 50 58 50 52 60 58 37 13 13 12 13 11 11 10 9 8 8 29 41 45 49 49 47 42 37 32 28 24 22 20 18 19 20 19 19 18 19
63 33 60 57 57 48 43 46 25 12 11 8 12 18 40 41 46 52 58 51 58 58 27 18 14 12 13 9 14 11 5 12 25 24 30 38 48 52 49 45 41 36 31 27 25 23 20 19 20 21 19 17 17 18
33 59 62 58 52 51 39 19 8 10 10 14 29 37 42 47 47 52 54 62 52 59 55 14 8 11 11 21 19 13 22 26 26 30 34 42 45 47 46 45 39 34 30 27 24 23 21 20 19 19 19 18 17 18
64 62 55 59 58 19 11 17 11 5 3 13 33 32 53 55 49 47 54 59 52 56 32 21 8 15 12 6 32 36 32 33 37 36 40 43 46 47 45 40 36 32 29 27 24 18 17 19 16 19 18 18 17 18
52 58 59 50 21 10 9 10 10 3 9 7 28 28 37 33 33 35 43 54 52 42 21 12 7 16 22 21 31 39 40 42 48 49 44 43 44 45 42 38 33 31 28 25 20 21 18 17 16 19 18 19 21 19
64 59 52 32 19 3 8 8 6 15 17 11 28 30 19 25 33 46 47 55 45 37 19 17 27 20 26 29 37 40 43 40 36 41 51 53 47 43 40 34 32 27 25 22 19 20 18 16 18 19 19 16 15 16
50 48 27 15 7 10 9 8 9 15 12 25 21 20 26 31 38 43 48 43 38 29 27 29 30 33 34 33 35 36 37 33 32 39 44 49 49 44 39 34 31 26 23 21 21 20 19 18 20 20 19 15 13 16
40 25 7 5 5 6 4 9 10 4 11 18 30 12 18 28 29 40 21 31 24 30 30 33 28 32 39 35 37 38 35 32 36 38 43 41 38 36 34 32 27 26 25 23 21 21 20 22 24 19 15 15 16 15
25 7 6 6 5 1 4 9 8 10 23 15 12 16 13 18 39 23 18 24 32 32 31 29 28 31 28 28 26 28 29 29 33 35 38 39 39 36 33 30 26 24 23 24 22 21 19 20 23 20 18 18 17 15
4 6 7 7 7 5 10 9 5 9 18 25 18 15 16 22 13 11 14 23 30 39 33 31 29 28 31 30 29 28 27 29 34 40 36 35 36 35 33 29 26 24 23 23 22 20 18 19 19 18 17 17 16 16
6 10 10 7 5 6 8 11 11 32 25 12 8 15 16 14 12 11 12 29 40 44 39 38 39 38 35 31 28 27 29 30 35 34 34 33 33 33 34 34 30 24 21 20 20 21 19 18 18 18 17 17 21 19
5 4 6 8 7 20 14 23 41 21 13 7 10 14 12 15 8 8 23 35 35 37 35 35 35 33 32 30 29 30 30 31 30 32 31 29 26 25 26 27 23 19 22 19 18 18 19 20 19 19 18 17 17 16
8 2 18 28 23 28 29 23 16 8 6 13 22 13 12 5 6 13 24 22 29 32 32 29 28 32 33 32 33 34 34 33 35 33 29 26 23 22 20 16 20 21 20 19 17 16 16 17 18 18 18 18 15 14
2 9 23 35 22 16 16 8 7 6 5 20 8 6 6 6 15 22 32 21 27 31 32 36 36 35 37 37 34 32 31 32 36 38 35 31 28 25 23 18 23 22 19 23 25 18 15 15 17 17 16 17 18 17
9 14 20 16 10 7 8 7 15 14 14 15 18 17 17 19 16 20 18 24 28 31 33 36 40 41 41 38 35 31 26 25 25 27 29 28 28 25 25 21 20 19 20 18 17 20 18 16 19 20 19 17 18 19
15 21 16 12 9 13 19 23 23 20 16 18 19 24 24 19 19 17 20 23 28 30 35 38 36 35 37 36 36 33 28 23 21 19 19 22 22 29 28 25 23 21 22 21 19 17 15 14 16 17 20 20 20 24
15 15 19 10 13 18 24 22 21 26 23 21 15 20 23 20 15 10 16 22 28 32 35 36 36 35 32 29 27 25 27 23 20 19 21 17 18 18 18 18 18 19 19 20 21 20 19 21 20 19 21 26 29 30
37 39 44 35 31 19 23 18 15 15 17 18 15 17 16 11 9 9 20 22 27 34 35 34 34 34 34 30 30 32 30 30 29 28 28 27 25 23 16 16 18 17 19 21 20 19 20 21 24 26 30 32 33 33
Wind_Direction_500mb
227 226 225 220 222 220 219 220 222 224 233 240 217 217 195 202 196 200 216 232 212 259 273 297 284 268 274 263 161 153 155 199 202 226 211 161 202 197 133 103 171 184 209 180 266 226 132 108 181 319 95 91 51 52
222 224 223 218 221 222 217 219 220 220 224 234 216 223 195 202 195 196 211 240 216 247 299 302 261 251 247 300 328 169 317 172 220 203 270 136 229 149 152 161 174 185 16 56 11 71 103 80 92 101 100 93 64 61
217 220 220 217 218 220 214 217 217 217 220 232 209 222 188 198 193 195 188 222 208 256 272 241 228 216 240 246 228 233 92 49 67 25 118 315 83 269 191 122 135 131 147 113 166 131 114 110 108 106 104 99 89 88
214 216 216 213 215 216 212 214 214 213 214 229 209 220 185 193 191 190 196 215 203 275 270 153 197 205 245 249 215 208 276 166 145 181 218 216 184 243 108 126 146 79 165 136 105 129 130 137 131 127 114 107 106 99
209 211 212 209 211 212 208 211 211 209 208 222 204 221 185 190 187 191 202 222 213 256 312 133 160 217 265 193 194 206 160 166 172 185 222 198 63 210 91 190 140 183 131 191 151 158 248 146 147 142 127 121 127 125
205 206 206 204 209 208 205 206 206 204 207 215 218 205 182 190 180 174 230 238 209 218 285 197 114 124 120 145 165 157 155 138 184 181 106 98 86 267 183 172 103 113 106 117 119 128 129 137 141 139 133 132 129 131
200 200 199 202 204 201 200 202 202 201 204 219 207 221 180 184 179 177 206 146 187 195 247 205 151 140 133 142 146 146 140 133 162 142 189 144 165 256 251 154 142 128 120 118 123 129 130 143 144 140 139 137 131 131
198 195 196 199 198 194 196 197 198 198 203 218 204 147 181 179 178 215 251 193 176 199 249 254 107 139 160 159 143 171 154 155 56 114 183 175 150 226 250 127 133 138 132 130 134 146 143 142 142 142 141 142 144 138
194 191 195 196 192 190 192 193 191 193 205 208 196 169 168 173 184 201 228 210 174 224 284 253 163 142 165 140 134 139 180 152 150 179 135 212 166 210 138 153 151 151 148 141 131 135 141 144 147 150 152 157 156 148
187 188 193 190 186 187 188 187 185 192 205 199 196 161 150 171 177 181 141 165 192 221 234 255 170 124 172 154 99 130 241 134 183 115 136 237 124 109 147 158 157 155 150 148 142 149 153 152 156 159 163 167 166 157
182 189 189 184 183 184 183 181 184 183 184 194 196 172 149 154 159 187 180 182 193 198 199 207 159 143 138 178 126 15 117 150 218 129 244 187 187 146 154 154 156 152 151 151 153 155 159 164 164 165 166 167 168 161
183 184 182 180 180 180 178 179 181 185 193 184 141 129 137 152 192 197 179 200 195 198 178 162 159 146 136 144 129 163 105 194 181 135 233 221 109 148 156 154 153 151 148 145 147 146 151 157 163 167 171 170 169 166
179 178 177 177 177 177 177 185 186 196 189 224 151 139 151 187 205 196 180 177 184 175 163 160 140 139 148 160 91 141 159 128 128 210 218 59 146 158 156 155 152 151 147 142 139 139 143 145 153 164 170 172 171 166
173 173 173 173 175 174 179 186 196 191 207 229 130 149 180 187 206 184 180 170 173 161 153 165 148 154 139 170 136 135 75 153 221 222 197 136 159 159 158 159 155 152 150 145 143 141 143 142 147 155 167 170 168 169
168 168 168 172 173 173 180 194 179 194 235 235 183 192 190 184 174 169 174 171 165 157 162 148 139 141 116 126 162 108 174 209 215 228 98 140 156 157 160 161 158 155 152 149 148 146 146 149 147 152 161 162 168 172
160 160 171 170 169 180 192 178 184 198 261 242 230 182 174 164 171 165 173 156 159 170 154 156 131 164 171 141 162 186 188 197 155 99 118 146 155 158 160 161 158 155 153 151 151 150 151 156 156 159 160 164 167 171
159 150 171 165 170 179 167 173 186 225 245 239 195 160 161 149 166 164 155 158 174 175 167 162 164 167 131 175 187 180 186 96 101 115 141 152 156 156 158 157 154 152 150 151 149 148 153 161 162 155 161 164 164 169
168 162 165 163 160 151 159 172 212 240 245 190 155 164 150 160 157 159 161 171 175 173 179 175 157 170 184 188 181 138 121 120 127 133 142 148 152 154 156 154 152 150 150 149 149 153 161 159 164 165 167 165 164 163
161 161 166 157 156 130 137 192 222 239 75 146 138 154 155 165 162 155 164 170 178 169 154 163 164 196 192 183 127 142 150 142 135 134 140 147 151 154 154 152 148 149 149 151 151 157 173 161 168 167 165 170 170 173
153 155 157 157 138 149 182 215 204 177 100 135 137 140 141 136 152 162 162 168 177 159 162 192 165 173 158 165 156 151 150 145 141 138 144 153 156 155 155 152 151 151 147 147 151 158 160 155 163 166 167 170 166 168
148 157 158 171 166 198 229 229 187 108 114 86 123 124 127 146 158 163 164 173 163 171 172 139 123 110 125 137 140 142 144 148 154 157 158 157 162 161 156 157 151 151 155 157 160 170 152 162 167 166 175 178 182 182
148 163 168 159 172 224 240 202 115 105 100 129 129 127 133 147 145 153 159 166 175 176 150 141 141 134 125 127 135 139 141 143 145 149 152 157 161 164 164 161 159 162 163 167 172 166 163 166 163 167 177 182 183 187
143 150 133 195 235 214 82 60 90 112 124 138 133 113 139 129 139 145 166 166 124 142 136 131 130 128 128 131 136 134 142 142 147 154 158 161 165 165 165 164 167 167 167 170 170 164 164 171 168 168 185 185 191 195
135 133 140 222 279 108 58 63 86 106 135 141 139 122 125 139 162 189 163 145 154 151 150 145 136 124 123 127 131 136 140 146 151 156 159 163 164 166 167 165 168 173 175 169 164 165 170 163 177 176 188 188 199 206
118 189 204 192 210 186 115 115 124 121 129 121 111 117 142 165 162 153 153 125 158 172 157 156 160 161 154 146 139 142 148 156 158 157 163 165 163 161 163 167 170 172 172 168 170 171 172 178 179 185 195 199 208 217
227 204 195 186 154 135 155 133 132 137 132 105 92 120 162 156 160 140 168 165 172 163 163 161 158 156 155 155 151 150 153 156 159 158 161 167 169 170 171 170 170 173 173 179 183 185 189 192 194 199 206 219 222 224
300 204 235 239 155 134 118 125 136 138 133 114 146 144 169 164 129 105 152 164 165 161 162 159 162 165 157 150 145 146 149 157 159 159 159 163 166 173 173 171 173 182 177 178 186 191 198 204 208 213 219 229 234 241
262 210 136 134 137 133 134 138 129 108 118 154 157 167 154 95 113 151 155 149 151 154 154 150 150 149 146 144 144 142 144 151 150 147 147 149 156 156 159 165 179 185 165 170 174 180 191 202 209 219 225 227 226 237
254 145 148 112 96 56 36 34 90 88 120 173 126 89 88 94 152 158 157 152 153 156 149 142 138 140 138 137 142 147 147 149 153 155 157 159 163 167 171 176 181 168 176 184 185 182 193 196 212 219 228 236 246 256
58 74 101 59 59 60 36 54 108 107 102 111 113 111 93 91 100 125 133 144 151 153 152 150 146 148 145 143 139 137 144 151 161 169 176 183 189 189 187 185 184 188 191 198 206 214 225 227 229 231 234 244 255 266
108 105 82 78 83 103 108 107 100 95 96 94 105 119 126 119 106 109 131 141 149 149 146 144 145 147 143 145 147 147 150 158 168 177 192 188 185 190 187 196 202 209 212 204 209 222 238 237 232 241 247 252 264 276
140 122 127 116 127 141 131 109 89 97 106 110 111 123 128 122 109 133 151 147 152 151 151 150 147 146 147 144 144 153 156 156 157 157 158 169 184 189 196 207 210 213 222 229 226 235 237 240 244 251 260 270 276 281
111 114 118 117 134 144 153 134 112 107 98 99 94 114 121 107 122 146 157 151 160 160 155 154 151 145 142 143 145 146 154 167 170 167 169 173 173 174 182 205 210 211 222 227 232 239 248 258 265 270 274 277 279 280
Wind_Speed_850mb
59 56 51 51 47 48 47 47 43 39 38 36 69 33 57 62 55 53 22 25 18 23 21 4 6 8 12 15 16 30 13 11 15 15 8 4 5 10 6 13 9 11 10 7 1 8 11 5 7 10 16 14 11 13
63 60 55 53 50 48 50 46 45 42 40 35 68 36 43 68 59 52 21 23 26 18 17 15 15 14 13 8 9 16 10 26 3 8 4 4 7 8 16 13 2 5 9 6 13 10 22 25 31 22 15 14 12 11
66 61 59 55 53 49 52 47 46 43 39 36 61 27 47 67 64 59 20 16 18 19 34 25 19 13 8 10 10 9 6 6 3 5 4 2 5 8 13 12 11 8 6 9 14 19 24 24 22 20 17 16 13 12
67 64 60 56 55 52 54 49 47 44 42 33 56 35 48 66 62 57 28 15 20 14 17 21 12 7 13 14 20 14 7 6 15 8 10 9 7 5 3 11 2 8 17 16 20 25 25 20 20 19 18 15 14 14
68 65 59 57 56 53 55 50 47 44 42 29 55 32 48 61 58 53 29 22 26 12 13 14 14 4 5 13 16 14 14 11 16 10 10 6 6 6 4 10 16 12 19 11 14 42 8 36 25 19 16 13 14 16
70 65 58 58 58 54 55 50 47 45 44 28 49 29 51 59 56 36 19 36 33 21 13 8 15 9 10 15 16 18 13 7 7 6 5 4 1 6 12 7 14 18 18 19 30 26 32 34 27 19 17 16 17 19
72 65 59 58 57 55 55 50 47 45 44 29 60 39 61 65 63 44 5 15 37 19 11 9 18 13 18 19 16 16 14 8 9 10 3 10 12 6 5 5 28 24 29 38 37 43 37 31 27 21 20 20 23 20
74 64 59 60 56 57 54 51 49 43 38 43 64 14 57 59 47 42 17 23 45 16 14 7 11 24 15 21 16 13 18 17 5 6 9 10 11 6 2 29 37 37 38 40 26 21 30 30 27 22 21 22 22 20
71 64 62 60 57 58 54 51 48 43 33 44 67 31 63 67 34 35 26 20 43 12 13 10 18 16 20 10 17 11 8 7 5 7 7 8 9 7 26 37 40 43 31 32 31 34 33 29 25 22 21 21 21 19
69 66 62 59 60 57 55 52 49 47 30 55 53 23 24 50 35 30 17 22 19 14 14 14 37 17 31 27 7 12 3 7 11 6 7 8 8 18 26 34 40 33 34 36 37 33 30 26 22 20 20 20 20 19
69 67 60 60 61 57 56 56 49 38 47 47 19 15 50 61 42 14 17 23 26 14 20 15 25 24 13 14 13 6 4 4 7 9 7 11 9 24 34 39 40 34 35 28 21 25 23 22 22 21 21 21 23 22
67 63 59 63 58 57 58 55 50 51 57 44 15 43 69 30 16 14 17 15 16 20 35 30 26 42 18 7 11 6 5 2 3 9 7 6 14 40 42 46 40 40 32 25 26 24 21 21 20 20 21 23 24 22
64 60 64 59 59 62 55 55 53 45 54 19 19 19 26 15 11 19 37 27 20 37 43 47 29 27 12 6 11 6 7 4 7 7 7 9 37 41 48 47 46 38 33 31 28 24 23 22 19 19 21 24 26 22
61 64 60 59 60 60 52 47 44 61 38 6 11 15 14 17 18 16 31 30 42 45 55 50 31 17 25 13 7 9 7 7 8 8 6 17 39 48 49 47 47 41 35 31 27 24 22 20 20 19 21 24 24 23
64 60 57 58 60 54 54 38 62 56 12 11 15 14 24 27 40 38 59 56 43 56 57 46 28 22 13 7 4 8 10 9 10 6 14 35 42 50 50 49 45 40 34 29 25 23 21 21 19 20 20 21 21 21
60 54 55 59 57 54 42 47 41 20 10 9 15 18 44 38 40 50 58 50 52 60 58 37 13 13 12 13 11 11 10 9 8 8 29 41 45 49 49 47 42 37 32 28 24 22 20 18 19 20 19 19 18 19
63 33 60 57 57 48 43 46 25 12 11 8 12 18 40 41 46 52 58 51 58 58 27 18 14 12 13 9 14 11 5 12 25 24 30 38 48 52 49 45 41 36 31 27 25 23 20 19 20 21 19 17 17 18
33 59 62 58 52 51 39 19 8 10 10 14 29 37 42 47 47 52 54 62 52 59 55 14 8 11 11 21 19 13 22 26 26 30 34 42 45 47 46 45 39 34 30 27 24 23 21 20 19 19 19 18 17 18
64 62 55 59 58 19 11 17 11 5 3 13 33 32 53 55 49 47 54 59 52 56 32 21 8 15 12 6 32 36 32 33 37 36 40 43 46 47 45 40 36 32 29 27 24 18 17 19 16 19 18 18 17 18
52 58 59 50 21 10 9 10 10 3 9 7 28 28 37 33 33 35 43 54 52 42 21 12 7 16 22 21 31 39 40 42 48 49 44 43 44 45 42 38 33 31 28 25 20 21 18 17 16 19 18 19 21 19
64 59 52 32 19 3 8 8 6 15 17 11 28 30 19 25 33 46 47 55 45 37 19 17 27 20 26 29 37 40 43 40 36 41 51 53 47 43 40 34 32 27 25 22 19 20 18 16 18 19 19 16 15 16
50 48 27 15 7 10 9 8 9 15 12 25 21 20 26 31 38 43 48 43 38 29 27 29 30 33 34 33 35 36 37 33 32 39 44 49 49 44 39 34 31 26 23 21 21 20 19 18 20 20 19 15 13 16
40 25 7 5 5 6 4 9 10 4 11 18 30 12 18 28 29 40 21 31 24 30 30 33 28 32 39 35 37 38 35 32 36 38 43 41 38 36 34 32 27 26 25 23 21 21 20 22 24 19 15 15 16 15
25 7 6 6 5 1 4 9 8 10 23 15 12 16 13 18 39 23 18 24 32 32 31 29 28 31 28 28 26 28 29 29 33 35 38 39 39 36 33 30 26 24 23 24 22 21 19 20 23 20 18 18 17 15
4 6 7 7 7 5 10 9 5 9 18 25 18 15 16 22 13 11 14 23 30 39 33 31 29 28 31 30 29 28 27 29 34 40 36 35 36 35 33 29 26 24 23 23 22 20 18 19 19 18 17 17 16 16
6 10 10 7 5 6 8 11 11 32 25 12 8 15 16 14 12 11 12 29 40 44 39 38 39 38 35 31 28 27 29 30 35 34 34 33 33 33 34 34 30 24 21 20 20 21 19 18 18 18 17 17 21 19
5 4 6 8 7 20 14 23 41 21 13 7 10 14 12 15 8 8 23 35 35 37 35 35 35 33 32 30 29 30 30 31 30 32 31 29 26 25 26 27 23 19 22 19 18 18 19 20 19 19 18 17 17 16
8 2 18 28 23 28 29 23 16 8 6 13 22 13 12 5 6 13 24 22 29 32 32 29 28 32 33 32 33 34 34 33 35 33 29 26 23 22 20 16 20 21 20 19 17 16 16 17 18 18 18 18 15 14
2 9 23 35 22 16 16 8 7 6 5 20 8 6 6 6 15 22 32 21 27 31 32 36 36 35 37 37 34 32 31 32 36 38 35 31 28 25 23 18 23 22 19 23 25 18 15 15 17 17 16 17 18 17
9 14 20 16 10 7 8 7 15 14 14 15 18 17 17 19 16 20 18 24 28 31 33 36 40 41 41 38 35 31 26 25 25 27 29 28 28 25 25 21 20 19 20 18 17 20 18 16 19 20 19 17 18 19
15 21 16 12 9 13 19 23 23 20 16 18 19 24 24 19 19 17 20 23 28 30 35 38 36 35 37 36 36 33 28 23 21 19 19 22 22 29 28 25 23 21 22 21 19 17 15 14 16 17 20 20 20 24
15 15 19 10 13 18 24 22 21 26 23 21 15 20 23 20 15 10 16 22 28 32 35 36 36 35 32 29 27 25 27 23 20 19 21 17 18 18 18 18 18 19 19 20 21 20 19 21 20 19 21 26 29 30
37 39 44 35 31 19 23 18 15 15 17 18 15 17 16 11 9 9 20 22 27 34 35 34 34 34 34 30 30 32 30 30 29 28 28 27 25 23 16 16 18 17 19 21 20 19 20 21 24 26 30 32 33 33
Wind_Direction_850mb
227 226 225 220 222 220 219 220 222 224 233 240 217 217 195 202 196 200 216 232 212 259 273 297 284 268 274 263 161 153 155 199 202 226 211 161 202 197 133 103 171 184 209 180 266 226 132 108 181 319 95 91 51 52
222 224 223 218 221 222 217 219 220 220 224 234 216 223 195 202 195 196 211 240 216 247 299 302 261 251 247 300 328 169 317 172 220 203 270 136 229 149 152 161 174 185 16 56 11 71 103 80 92 101 100 93 64 61
217 220 220 217 218 220 214 217 217 217 220 232 209 222 188 198 193 195 188 222 208 256 272 241 228 216 240 246 228 233 92 49 67 25 118 315 83 269 191 122 135 131 147 113 166 131 114 110 108 106 104 99 89 88
214 216 216 213 215 216 212 214 214 213 214 229 209 220 185 193 191 190 196 215 203 275 270 153 197 205 245 249 215 208 276 166 145 181 218 216 184 243 108 126 146 79 165 136 105 129 130 137 131 127 114 107 106 99
209 211 212 209 211 212 208 211 211 209 208 222 204 221 185 190 187 191 202 222 213 256 312 133 160 217 265 193 194 206 160 166 172 185 222 198 63 210 91 190 140 183 131 191 151 158 248 146 147 142 127 121 127 125
205 206 206 204 209 208 205 206 206 204 207 215 218 205 182 190 180 174 230 238 209 218 285 197 114 124 120 145 165 157 155 138 184 181 106 98 86 267 183 172 103 113 106 117 119 128 129 137 141 139 133 132 129 131
200 200 199 202 204 201 200 202 202 201 204 219 207 221 180 184 179 177 206 146 187 195 247 205 151 140 133 142 146 146 140 133 162 142 189 144 165 256 251 154 142 128 120 118 123 129 130 143 144 140 139 137 131 131
198 195 196 199 198 194 196 197 198 198 203 218 204 147 181 179 178 215 251 193 176 199 249 254 107 139 160 159 143 171 154 155 56 114 183 175 150 226 250 127 133 138 132 130 134 146 143 142 142 142 141 142 144 138
194 191 195 196 192 190 192 193 191 193 205 208 196 169 168 173 184 201 228 210 174 224 284 253 163 142 165 140 134 139 180 152 150 179 135 212 166 210 138 153 151 151 148 141 131 135 141 144 147 150 152 157 156 148
187 188 193 190 186 187 188 187 185 192 205 199 196 161 150 171 177 181 141 165 192 221 234 255 170 124 172 154 99 130 241 134 183 115 136 237 124 109 147 158 157 155 150 148 142 149 153 152 156 159 163 167 166 157
182 189 189 184 183 184 183 181 184 183 184 194 196 172 149 154 159 187 180 182 193 198 199 207 159 143 138 178 126 15 117 150 218 129 244 187 187 146 154 154 156 152 151 151 153 155 159 164 164 165 166 167 168 161
183 184 182 180 180 180 178 179 181 185 193 184 141 129 137 152 192 197 179 200 195 198 178 162 159 146 136 144 129 163 105 194 181 135 233 221 109 148 156 154 153 151 148 145 147 146 151 157 163 167 171 170 169 166
179 178 177 177 177 177 177 185 186 196 189 224 151 139 151 187 205 196 180 177 184 175 163 160 140 139 148 160 91 141 159 128 128 210 218 59 146 158 156 155 152 151 147 142 139 139 143 145 153 164 170 172 171 166
173 173 173 173 175 174 179 186 196 191 207 229 130 149 180 187 206 184 180 170 173 161 153 165 148 154 139 170 136 135 75 153 221 222 197 136 159 159 158 159 155 152 150 145 143 141 143 142 147 155 167 170 168 169
168 168 168 172 173 173 180 194 179 194 235 235 183 192 190 184 174 169 174 171 165 157 162 148 139 141 116 126 162 108 174 209 215 228 98 140 156 157 160 161 158 155 152 149 148 146 146 149 147 152 161 162 168 172
160 160 171 170 169 180 192 178 184 198 261 242 230 182 174 164 171 165 173 156 159 170 154 156 131 164 171 141 162 186 188 197 155 99 118 146 155 158 160 161 158 155 153 151 151 150 151 156 156 159 160 164 167 171
159 150 171 165 170 179 167 173 186 225 245 239 195 160 161 149 166 164 155 158 174 175 167 162 164 167 131 175 187 180 186 96 101 115 141 152 156 156 158 157 154 152 150 151 149 148 153 161 162 155 161 164 164 169
168 162 165 163 160 151 159 172 212 240 245 190 155 164 150 160 157 159 161 171 175 173 179 175 157 170 184 188 181 138 121 120 127 133 142 148 152 154 156 154 152 150 150 149 149 153 161 159 164 165 167 165 164 163
161 161 166 157 156 130 137 192 222 239 75 146 138 154 155 165 162 155 164 170 178 169 154 163 164 196 192 183 127 142 150 142 135 134 140 147 151 154 154 152 148 149 149 151 151 157 173 161 168 167 165 170 170 173
153 155 157 157 138 149 182 215 204 177 100 135 137 140 141 136 152 162 162 168 177 159 162 192 165 173 158 165 156 151 150 145 141 138 144 153 156 155 155 152 151 151 147 147 151 158 160 155 163 166 167 170 166 168
148 157 158 171 166 198 229 229 187 108 114 86 123 124 127 146 158 163 164 173 163 171 172 139 123 110 125 137 140 142 144 148 154 157 158 157 162 161 156 157 151 151 155 157 160 170 152 162 167 166 175 178 182 182
148 163 168 159 172 224 240 202 115 105 100 129 129 127 133 147 145 153 159 166 175 176 150 141 141 134 125 127 135 139 141 143 145 149 152 157 161 164 164 161 159 162 163 167 172 166 163 166 163 167 177 182 183 187
143 150 133 195 235 214 82 60 90 112 124 138 133 113 139 129 139 145 166 166 124 142 136 131 130 128 128 131 136 134 142 142 147 154 158 161 165 165 165 164 167 167 167 170 170 164 164 171 168 168 185 185 191 195
135 133 140 222 279 108 58 63 86 106 135 141 139 122 125 139 162 189 163 145 154 151 150 145 136 124 123 127 131 136 140 146 151 156 159 163 164 166 167 165 168 173 175 169 164 165 170 163 177 176 188 188 199 206
118 189 204 192 210 186 115 115 124 121 129 121 111 117 142 165 162 153 153 125 158 172 157 156 160 161 154 146 139 142 148 156 158 157 163 165 163 161 163 167 170 172 172 168 170 171 172 178 179 185 195 199 208 217
227 204 195 186 154 135 155 133 132 137 132 105 92 120 162 156 160 140 168 165 172 163 163 161 158 156 155 155 151 150 153 156 159 158 161 167 169 170 171 170 170 173 173 179 183 185 189 192 194 199 206 219 222 224
300 204 235 239 155 134 118 125 136 138 133 114 146 144 169 164 129 105 152 164 165 161 162 159 162 165 157 150 145 146 149 157 159 159 159 163 166 173 173 171 173 182 177 178 186 191 198 204 208 213 219 229 234 241
262 210 136 134 137 133 134 138 129 108 118 154 157 167 154 95 113 151 155 149 151 154 154 150 150 149 146 144 144 142 144 151 150 147 147 149 156 156 159 165 179 185 165 170 174 180 191 202 209 219 225 227 226 237
254 145 148 112 96 56 36 34 90 88 120 173 126 89 88 94 152 158 157 152 153 156 149 142 138 140 138 137 142 147 147 149 153 155 157 159 163 167 171 176 181 168 176 184 185 182 193 196 212 219 228 236 246 256
58 74 101 59 59 60 36 54 108 107 102 111 113 111 93 91 100 125 133 144 151 153 152 150 146 148 145 143 139 137 144 151 161 169 176 183 189 189 187 185 184 188 191 198 206 214 225 227 229 231 234 244 255 266
108 105 82 78 83 103 108 107 100 95 96 94 105 119 126 119 106 109 131 141 149 149 146 144 145 147 143 145 147 147 150 158 168 177 192 188 185 190 187 196 202 209 212 204 209 222 238 237 232 241 247 252 264 276
140 122 127 116 127 141 131 109 89 97 106 110 111 123 128 122 109 133 151 147 152 151 151 150 147 146 147 144 144 153 156 156 157 157 158 169 184 189 196 207 210 213 222 229 226 235 237 240 244 251 260 270 276 281
111 114 118 117 134 144 153 134 112 107 98 99 94 114 121 107 122 146 157 151 160 160 155 154 151 145 142 143 145 146 154 167 170 167 169 173 173 174 182 205 210 211 222 227 232 239 248 258 265 270 274 277 279 280